Wind_Speed
70 66 64 62 59 56 55 54 53 52 48 45 42 40 37 33 29 27 25 21 18 18 16 13 13 10 9 9 12 13 16 19 22 23 26 27 30 36 40 43 48 50 48 41 32 29 25
71 72 68 65 63 60 56 55 54 53 50 47 45 43 41 37 34 31 28 26 22 20 20 17 14 12 11 11 13 13 16 19 21 24 26 29 33 37 39 43 47 49 48 43 30 34 27
70 72 72 68 65 65 61 56 55 55 53 51 48 45 43 41 38 35 32 29 25 23 22 17 13 14 14 12 14 15 17 19 21 24 27 30 34 36 40 42 46 48 29 40 38 23 30
74 71 73 72 67 67 65 61 57 56 55 53 50 47 45 42 39 37 35 33 28 25 23 22 16 16 15 14 15 15 16 18 21 24 26 29 33 37 40 44 45 42 43 39 33 19 21
77 74 72 74 71 69 68 66 62 57 56 54 52 49 47 44 41 40 37 35 30 27 22 23 19 17 18 16 14 16 17 18 21 24 27 30 33 37 40 42 44 46 42 42 37 28 23
79 77 74 71 75 72 70 69 67 63 59 57 54 52 49 46 44 41 38 36 33 28 25 24 20 20 21 20 15 17 19 20 22 24 27 30 33 36 40 44 48 48 44 41 36 32 25
81 79 77 73 74 74 73 71 70 67 64 61 58 55 52 49 46 43 40 38 37 33 31 27 25 23 23 21 18 19 20 21 23 25 28 31 34 38 42 45 47 46 41 41 38 33 30
83 82 80 78 74 75 75 75 72 70 68 66 62 59 56 52 49 46 42 39 38 34 31 29 28 24 23 23 21 21 22 23 24 27 30 33 34 37 41 44 45 45 41 40 37 36 31
81 84 83 81 81 75 75 78 76 73 69 68 66 64 61 57 54 49 46 44 40 37 35 31 28 24 23 24 24 25 26 26 27 29 30 32 35 38 41 44 45 42 41 41 36 36 32
75 82 84 84 84 81 77 78 80 77 74 70 69 66 64 62 58 55 51 47 45 42 39 35 31 27 28 29 27 27 28 28 29 30 31 34 36 38 40 43 42 40 41 39 37 38 33
69 75 81 84 85 85 83 80 80 81 79 75 71 69 67 65 62 57 56 53 50 46 45 37 35 37 35 32 32 32 32 33 32 33 33 36 37 38 40 42 41 40 39 37 37 37 34
65 70 75 81 85 86 87 85 84 82 83 81 77 73 70 68 64 62 59 56 53 51 48 42 44 41 39 37 35 37 36 36 36 36 36 37 39 39 40 39 37 39 37 36 38 35 28
61 66 72 77 82 86 88 89 88 86 84 83 82 79 75 72 67 65 63 59 56 50 48 48 49 45 44 42 40 40 40 40 40 39 39 40 40 40 38 36 36 38 37 35 34 37 29
57 63 69 74 78 83 88 87 88 89 87 85 83 82 80 77 75 71 68 64 57 57 52 52 54 50 48 47 44 43 44 43 43 42 42 43 41 40 38 36 37 37 36 35 35 33 28
18 51 68 73 76 80 85 89 89 87 87 88 87 84 82 83 80 76 73 68 64 66 60 58 58 54 52 50 49 48 47 45 45 45 44 44 41 39 38 38 38 37 35 33 31 29 34
29 28 53 74 77 80 83 86 90 89 88 87 88 88 86 83 81 79 77 74 73 70 62 58 59 57 55 54 52 51 49 49 48 46 45 45 41 39 38 41 40 36 33 32 32 29 32
41 51 52 69 79 81 83 84 88 90 91 88 88 90 87 86 82 79 73 75 77 68 63 61 65 63 60 56 55 53 51 51 49 48 48 47 44 41 41 41 40 37 32 31 30 30 31
44 56 64 72 78 83 84 85 86 88 91 91 88 89 85 85 83 79 76 78 76 69 66 68 66 65 62 59 58 56 55 54 52 50 49 48 46 43 42 41 40 37 32 30 32 28 30
55 61 62 65 73 81 86 86 87 87 89 92 92 90 85 85 81 79 79 78 74 69 70 69 67 68 66 65 63 60 59 58 53 51 51 50 49 46 44 42 41 37 33 32 32 33 31
49 50 56 63 67 73 82 89 89 88 88 90 94 92 85 83 83 83 82 80 76 70 73 71 69 68 67 66 65 63 62 58 55 57 52 51 51 49 46 45 39 39 35 34 35 35 37
41 37 47 61 66 69 73 82 91 90 90 89 91 94 92 92 86 84 83 82 77 70 75 73 71 69 68 67 67 65 65 59 60 58 54 54 52 51 49 44 38 38 36 37 38 38 37
39 30 40 58 68 69 73 75 83 92 91 91 93 95 91 88 86 85 83 82 79 77 77 73 71 72 71 70 69 67 66 61 61 59 57 56 53 52 47 51 39 38 38 39 39 39 38
42 28 32 49 65 73 72 74 77 83 93 93 89 84 85 89 91 88 83 82 81 82 80 77 75 77 74 72 73 71 67 66 63 62 61 58 56 53 49 49 44 38 44 40 39 41 40
49 27 29 39 55 68 74 74 75 77 82 91 90 92 92 90 92 93 91 88 86 84 84 81 78 76 77 73 71 66 67 69 65 63 62 59 57 55 51 48 46 42 50 38 42 44 47
50 26 27 37 50 61 72 74 73 74 75 77 90 90 89 88 90 94 92 93 91 87 82 80 78 74 79 74 75 72 73 74 71 65 61 61 63 58 52 50 49 48 51 44 39 50 53
50 25 25 36 44 54 65 72 73 71 72 72 73 84 91 91 93 88 91 89 90 87 84 81 81 80 79 75 77 77 76 75 76 63 62 65 67 60 56 53 51 51 61 39 44 56 52
53 26 22 34 42 52 61 67 73 71 70 69 68 67 78 91 88 90 89 85 85 86 90 89 89 85 82 83 82 81 78 78 79 71 66 69 69 63 59 58 56 60 59 44 53 55 57
57 28 19 28 39 51 62 66 70 71 68 65 65 65 63 69 81 89 85 82 83 85 87 87 89 89 87 90 86 83 82 82 81 75 74 72 71 68 66 67 65 62 57 54 58 61 59
63 33 20 22 33 48 57 58 65 68 65 60 58 59 60 56 54 65 84 88 85 85 85 85 81 88 89 93 92 89 89 90 86 82 85 75 70 75 79 76 67 62 64 61 62 63 62
Wind_Direction
213 212 212 215 215 217 216 217 218 218 218 220 223 223 228 229 231 237 241 244 250 262 273 275 281 273 292 309 316 333 344 349 356 3 5 10 10 12 15 17 18 19 23 24 26 27 28
214 215 214 213 217 217 219 219 220 221 221 224 226 226 229 231 233 236 241 246 255 268 278 282 281 284 291 303 311 324 336 346 353 358 0 4 8 9 9 11 15 20 22 19 17 36 33
216 216 217 216 216 217 219 221 221 223 226 228 229 231 231 233 237 238 243 246 256 265 277 282 278 286 287 297 310 317 324 336 344 351 357 359 2 5 6 7 11 17 15 17 24 54 12
218 217 218 219 218 219 219 222 223 223 225 228 230 235 239 240 239 240 245 251 257 264 269 276 276 282 286 296 304 312 321 332 337 345 352 353 358 359 0 4 5 10 15 15 23 27 335
219 219 219 221 220 221 221 221 223 224 226 228 233 236 239 242 245 245 246 250 257 262 265 267 271 276 289 294 297 305 315 326 333 339 346 348 353 355 356 358 357 6 11 11 16 15 11
218 221 221 222 222 221 224 224 224 225 226 229 232 234 237 240 244 247 250 252 256 260 263 264 267 272 286 292 291 295 309 316 325 332 339 343 347 349 351 348 356 0 6 8 7 7 11
217 219 222 222 222 224 224 226 227 226 228 229 232 235 237 239 243 245 249 251 254 254 256 260 265 269 278 283 282 290 298 307 317 324 332 337 342 344 345 350 353 355 2 2 -0 2 3
218 219 221 222 223 224 227 226 227 229 230 232 233 235 237 240 241 245 247 250 253 259 258 259 263 265 268 273 274 282 291 300 308 317 324 330 335 338 343 346 348 353 357 357 355 358 358
219 221 221 223 223 224 227 227 228 229 231 233 233 236 238 240 242 244 247 249 252 254 257 259 263 262 264 270 273 280 288 296 305 311 317 324 328 332 337 341 345 349 350 352 353 353 353
220 221 223 223 224 225 226 227 228 230 232 232 235 235 237 239 242 244 246 247 250 253 256 257 258 256 260 268 273 278 286 292 301 306 312 318 323 328 333 336 339 343 347 348 349 349 350
222 222 222 224 225 226 227 227 228 230 232 234 235 236 236 238 241 244 246 247 249 252 254 261 261 259 261 265 270 278 283 291 297 302 307 313 318 322 327 332 335 340 344 344 344 347 343
223 223 223 223 225 226 227 228 229 230 230 233 235 236 237 238 238 240 244 246 248 251 254 254 256 259 260 264 270 274 281 286 291 296 302 305 310 317 322 328 332 336 339 340 341 341 334
227 225 225 224 224 226 227 228 230 230 231 231 234 235 237 238 239 240 242 244 247 249 252 252 254 255 259 263 266 270 275 280 285 292 295 298 305 312 317 321 327 330 333 334 331 335 348
239 233 228 226 225 226 226 228 230 231 232 232 233 234 235 236 239 241 243 246 247 248 248 247 251 252 255 260 263 266 270 276 282 286 289 294 301 307 311 315 321 327 327 329 333 331 340
294 246 236 230 227 226 226 227 227 229 231 232 233 234 234 236 237 239 242 245 246 248 247 249 253 253 255 258 260 262 267 274 277 280 286 289 296 301 305 310 317 321 323 323 325 326 325
265 277 244 233 229 227 226 226 227 228 229 230 233 234 234 236 237 239 241 243 245 248 250 248 248 249 253 254 257 261 266 271 274 278 281 286 290 297 301 306 312 315 318 318 321 321 321
293 247 239 234 229 228 227 225 226 228 229 230 231 232 233 235 237 238 239 240 242 244 242 241 245 248 251 254 256 259 262 265 270 274 278 282 286 292 297 302 307 310 312 312 314 313 313
290 254 243 237 231 228 227 226 226 226 228 229 230 232 232 234 235 237 238 239 241 241 241 243 245 246 249 252 254 256 259 262 267 273 276 279 282 288 293 296 302 305 305 306 305 303 303
273 258 248 242 236 230 228 226 226 226 227 228 229 231 230 232 232 234 236 238 239 239 239 240 241 244 247 251 254 256 258 261 267 269 270 276 281 283 289 292 297 299 301 302 300 300 300
285 264 248 240 234 231 228 226 225 225 226 227 229 229 229 232 231 232 234 236 237 237 239 241 242 245 249 250 251 253 256 260 261 265 270 272 276 281 283 287 292 293 295 297 296 296 296
299 265 242 231 231 227 226 225 225 224 224 226 227 229 227 229 229 231 232 234 236 235 238 240 243 244 244 245 249 251 255 258 260 264 266 270 274 276 279 284 285 288 292 293 293 294 294
318 268 241 230 225 221 223 224 223 224 223 223 225 227 228 232 232 233 233 234 234 234 236 238 239 241 243 244 248 250 254 257 258 262 265 268 270 273 277 280 280 285 287 288 292 290 291
328 282 245 230 226 222 221 221 222 222 223 224 225 228 227 228 231 232 232 233 234 234 235 238 238 239 241 243 246 249 254 257 256 260 261 264 267 271 272 274 278 284 280 287 289 288 291
334 293 251 233 226 224 222 220 221 222 223 223 224 225 225 225 228 229 229 231 232 233 235 236 237 241 243 247 251 253 253 255 255 256 257 261 264 266 268 272 277 276 278 284 285 291 287
335 295 254 235 224 222 222 221 221 221 223 224 223 225 226 227 227 228 230 231 231 233 236 237 239 241 244 244 247 248 249 251 252 253 257 260 261 264 267 270 272 275 276 280 288 284 286
336 303 257 234 227 220 220 222 221 222 223 223 225 225 225 227 229 229 229 231 234 234 235 237 238 239 242 242 243 246 249 252 255 254 255 257 261 263 265 269 270 270 273 281 283 282 291
340 313 267 231 226 219 218 220 221 221 222 224 224 227 227 228 229 230 230 232 233 234 235 236 237 239 240 241 242 245 248 251 253 257 256 258 262 265 267 268 269 269 276 282 277 285 285
345 322 278 236 226 219 217 217 219 222 222 224 225 226 228 230 229 231 234 234 234 232 233 236 238 241 241 243 244 245 247 250 254 254 255 256 259 264 265 267 267 272 277 278 279 279 285
346 332 293 248 230 219 218 215 218 222 221 223 226 227 228 230 229 230 232 234 234 233 235 236 237 238 238 242 244 244 246 249 251 254 256 257 260 264 261 264 272 273 272 273 277 279 282
Height
10951 10958 10965 10974 10981 10988 10994 11000 11004 11008 11013 11019 11024 11027 11031 11034 11037 11039 11041 11042 11044 11045 11047 11049 11049 11049 11050 11049 11049 11049 11049 11047 11047 11045 11044 11043 11040 11037 11035 11032 11028 11023 11017 11010 11002 10997 10995
10943 10951 10958 10966 10974 10981 10988 10994 11000 11004 11009 11014 11019 11024 11027 11031 11034 11037 11039 11041 11042 11044 11046 11049 11049 11050 11050 11050 11049 11049 11048 11047 11046 11045 11044 11042 11039 11037 11035 11032 11028 11024 11017 11011 11004 11002 10996
10935 10944 10952 10959 10966 10975 10982 10988 10995 11000 11005 11010 11014 11019 11023 11027 11030 11033 11036 11039 11041 11042 11044 11046 11048 11048 11048 11049 11049 11048 11048 11047 11046 11045 11043 11041 11039 11037 11034 11032 11029 11027 11025 11015 11010 11018 11000
10927 10935 10944 10951 10959 10967 10975 10982 10989 10995 11000 11005 11010 11014 11018 11022 11026 11029 11032 11035 11038 11041 11042 11044 11046 11047 11047 11047 11048 11047 11047 11046 11045 11044 11043 11041 11039 11036 11033 11030 11031 11031 11021 11014 11012 11007 11007
10918 10927 10936 10943 10951 10959 10967 10975 10982 10989 10995 11000 11004 11010 11014 11018 11021 11025 11029 11032 11036 11038 11040 11042 11043 11045 11045 11045 11046 11046 11045 11045 11044 11043 11041 11039 11038 11035 11031 11031 11028 11024 11024 11012 11009 11006 11007
10909 10918 10927 10935 10943 10951 10958 10966 10974 10981 10987 10994 10998 11003 11009 11013 11017 11020 11024 11028 11031 11035 11037 11039 11041 11042 11043 11044 11044 11043 11043 11043 11042 11041 11040 11038 11036 11034 11032 11028 11023 11020 11018 11015 11011 11005 11005
10898 10908 10918 10927 10935 10943 10950 10957 10964 10972 10979 10986 10992 10997 11002 11007 11012 11016 11020 11023 11026 11029 11032 11036 11037 11039 11040 11041 11042 11041 11041 11041 11040 11039 11038 11036 11034 11031 11027 11025 11023 11020 11017 11014 11012 11010 11006
10888 10897 10906 10916 10925 10933 10941 10949 10956 10962 10970 10977 10983 10990 10995 11001 11006 11011 11015 11017 11020 11025 11028 11031 11033 11035 11037 11037 11039 11038 11038 11039 11038 11037 11036 11035 11033 11030 11028 11025 11022 11018 11015 11013 11009 11007 11004
10877 10886 10895 10904 10913 10923 10931 10939 10947 10953 10961 10968 10974 10981 10988 10993 10999 11004 11008 11011 11015 11019 11022 11026 11028 11031 11033 11034 11035 11035 11035 11035 11036 11035 11034 11032 11030 11028 11026 11023 11020 11017 11014 11011 11007 11005 11002
10866 10874 10883 10893 10901 10910 10918 10927 10936 10943 10949 10957 10964 10972 10979 10985 10990 10995 11000 11005 11009 11013 11017 11021 11024 11027 11028 11030 11031 11031 11032 11033 11033 11032 11032 11030 11028 11026 11024 11022 11019 11017 11013 11008 11004 11001 10999
10856 10863 10871 10880 10889 10897 10905 10913 10922 10931 10938 10946 10953 10961 10969 10975 10981 10989 10990 10996 11001 11006 11010 11018 11019 11020 11023 11025 11026 11027 11028 11028 11029 11028 11028 11027 11026 11024 11022 11020 11017 11013 11011 11006 11002 10999 10994
10845 10853 10859 10866 10875 10883 10891 10899 10908 10916 10925 10933 10942 10949 10957 10964 10972 10976 10982 10986 10993 10999 11005 11009 11009 11015 11017 11019 11022 11021 11022 11023 11025 11025 11025 11024 11023 11022 11019 11017 11015 11012 11009 11005 10999 10997 10996
10835 10839 10845 10853 10860 10867 10875 10884 10893 10901 10911 10919 10928 10937 10945 10954 10961 10964 10970 10977 10985 10993 10999 10999 11001 11007 11010 11012 11015 11016 11016 11018 11019 11020 11020 11020 11019 11018 11016 11014 11012 11009 11006 11004 11001 10992 10992
10825 10827 10830 10836 10843 10851 10859 10868 10877 10886 10896 10905 10913 10923 10932 10940 10947 10954 10960 10969 10980 10979 10988 10990 10992 10997 11002 11005 11008 11009 11010 11012 11013 11015 11015 11015 11015 11014 11013 11011 11009 11007 11004 11000 10995 10990 10990
10811 10811 10814 10819 10825 10833 10841 10850 10860 10869 10880 10888 10898 10907 10915 10925 10934 10941 10949 10961 10966 10965 10976 10980 10984 10988 10993 10996 10998 11001 11003 11006 11007 11008 11010 11009 11011 11010 11009 11007 11006 11004 11001 10997 10994 10990 10982
10792 10791 10791 10798 10806 10813 10822 10832 10842 10852 10862 10872 10882 10891 10899 10910 10919 10927 10940 10948 10949 10954 10968 10973 10973 10978 10981 10985 10989 10992 10995 10997 10999 11002 11003 11003 11006 11005 11004 11001 11000 11000 10998 10993 10989 10986 10980
10775 10769 10769 10773 10783 10793 10803 10812 10823 10834 10844 10854 10864 10870 10886 10892 10905 10916 10930 10931 10932 10947 10956 10959 10960 10965 10970 10975 10979 10983 10986 10988 10991 10994 10996 10997 10999 10999 10998 10997 10995 10995 10993 10989 10986 10982 10978
10749 10747 10751 10756 10762 10772 10783 10794 10804 10814 10825 10835 10846 10853 10871 10879 10893 10902 10912 10913 10921 10935 10941 10944 10951 10955 10960 10965 10969 10973 10976 10979 10983 10986 10988 10988 10991 10993 10992 10990 10989 10989 10987 10985 10980 10981 10977
10722 10724 10729 10734 10741 10750 10761 10774 10785 10796 10806 10817 10826 10835 10852 10863 10878 10887 10892 10899 10910 10923 10925 10931 10938 10942 10947 10952 10957 10962 10965 10969 10975 10977 10978 10981 10982 10983 10984 10984 10983 10982 10980 10978 10975 10972 10972
10697 10696 10699 10706 10716 10725 10737 10750 10764 10776 10787 10797 10807 10820 10837 10847 10858 10866 10874 10883 10895 10909 10911 10918 10925 10930 10937 10942 10945 10949 10953 10961 10964 10964 10971 10972 10971 10973 10976 10975 10977 10973 10973 10972 10968 10966 10963
10676 10672 10675 10680 10690 10702 10713 10726 10740 10754 10766 10778 10789 10799 10813 10819 10836 10847 10858 10867 10880 10895 10895 10904 10913 10919 10922 10926 10930 10937 10939 10951 10951 10955 10960 10961 10962 10963 10963 10967 10970 10966 10964 10963 10961 10958 10957
10662 10657 10658 10663 10671 10679 10694 10704 10717 10732 10745 10755 10761 10774 10798 10814 10825 10835 10844 10854 10865 10874 10880 10890 10898 10902 10907 10913 10917 10923 10927 10937 10940 10944 10947 10949 10953 10953 10957 10950 10960 10958 10956 10955 10954 10951 10949
10651 10645 10644 10648 10656 10667 10676 10686 10698 10711 10724 10734 10758 10776 10788 10794 10804 10815 10828 10837 10848 10855 10864 10874 10882 10883 10891 10899 10902 10908 10917 10920 10928 10932 10935 10938 10941 10943 10946 10943 10947 10950 10944 10947 10945 10942 10941
10641 10634 10633 10635 10641 10653 10663 10673 10683 10694 10706 10722 10736 10746 10757 10770 10780 10793 10804 10815 10826 10838 10845 10856 10865 10873 10876 10887 10893 10903 10904 10905 10912 10918 10922 10926 10929 10930 10934 10935 10938 10939 10931 10941 10935 10932 10929
10631 10622 10621 10623 10629 10637 10650 10662 10671 10681 10692 10704 10715 10731 10743 10754 10759 10767 10786 10797 10806 10818 10835 10845 10854 10864 10858 10873 10876 10882 10884 10886 10894 10906 10912 10913 10912 10917 10922 10925 10927 10926 10922 10927 10931 10920 10915
10620 10612 10609 10612 10617 10625 10637 10650 10660 10670 10680 10690 10701 10714 10725 10730 10741 10761 10768 10784 10797 10811 10820 10829 10835 10841 10849 10859 10859 10862 10868 10875 10874 10893 10899 10897 10896 10904 10910 10913 10915 10915 10902 10924 10918 10905 10910
10611 10602 10599 10600 10606 10614 10624 10637 10648 10658 10668 10679 10689 10699 10708 10720 10733 10739 10751 10768 10783 10793 10799 10809 10814 10826 10834 10835 10840 10847 10855 10858 10859 10875 10884 10882 10883 10892 10897 10898 10901 10895 10897 10912 10902 10901 10897
10604 10594 10591 10591 10596 10603 10611 10623 10636 10645 10657 10669 10678 10688 10698 10708 10723 10728 10741 10757 10765 10767 10776 10795 10803 10811 10818 10816 10827 10836 10841 10844 10846 10859 10864 10868 10871 10876 10879 10880 10883 10887 10890 10894 10890 10886 10886
10600 10591 10585 10585 10587 10593 10602 10616 10626 10636 10649 10660 10671 10680 10688 10697 10709 10714 10720 10733 10743 10749 10760 10771 10789 10786 10796 10798 10809 10819 10820 10823 10832 10839 10843 10856 10862 10858 10857 10858 10871 10876 10873 10879 10875 10872 10873